Location: Quesnel
(52.9830°N, 122.4830°W)
Time: 10:41:20
(UTC-08:00)

ISS - All Passes

Search period start: 23 November 2014 00:00
Search period end: 03 December 2014 00:00
Orbit: 408 x 417 km, 51.6° (Epoch: 23 November)

Date Brightness Start Highest point End Pass type
(mag) Time Alt. Az. Time Alt. Az. Time Alt. Az.
23 Nov - 00:34:50 10° SSE 00:35:57 11° SE 00:37:04 10° ESE night (unlit)
23 Nov - 02:08:50 10° SW 02:11:56 38° SSE 02:15:02 10° E night (unlit)
23 Nov - 03:45:05 10° W 03:48:23 71° S 03:51:41 10° E visible
23 Nov - 05:21:41 10° W 05:24:53 48° SSW 05:28:05 10° ESE visible
23 Nov - 06:58:55 10° WSW 07:01:01 16° SW 07:03:06 10° S visible
24 Nov - 01:19:25 10° SW 01:22:19 29° SSE 01:25:14 10° E night (unlit)
24 Nov - 02:55:24 10° WSW 02:58:41 66° S 03:01:58 10° E night (unlit)
24 Nov - 04:31:57 10° W 04:35:13 59° SSW 04:38:28 10° ESE visible
24 Nov - 06:08:50 10° W 06:11:28 22° SSW 06:14:07 10° SSE visible
25 Nov - 00:30:09 10° SSW 00:32:42 21° SSE 00:35:16 10° E night (unlit)
25 Nov - 02:05:42 10° WSW 02:08:56 57° SSE 02:12:11 10° E night (unlit)
25 Nov - 03:42:11 10° W 03:45:28 67° S 03:48:45 10° ESE visible
25 Nov - 05:18:53 10° W 05:21:50 30° SSW 05:24:47 10° SE visible
25 Nov - 23:41:10 10° S 23:43:05 15° SE 23:45:02 10° ESE night (unlit)
26 Nov - 01:16:00 10° SW 01:19:10 46° SSE 01:22:21 10° E night (unlit)
26 Nov - 02:52:22 10° W 02:55:40 71° S 02:58:57 10° E night (unlit)
26 Nov - 04:28:59 10° W 04:32:07 40° SSW 04:35:14 10° SE visible
26 Nov - 06:06:43 10° WSW 06:08:07 12° SW 06:09:32 10° SSW visible
27 Nov - 00:26:21 10° SW 00:29:23 35° SSE 00:32:26 10° E night (unlit)
27 Nov - 02:02:31 10° W 02:05:48 70° S 02:09:05 10° E night (unlit)
27 Nov - 03:39:05 10° W 03:42:18 51° SSW 03:45:32 10° ESE visible
27 Nov - 05:16:09 10° W 05:18:28 18° SW 05:20:46 10° S visible
27 Nov - 23:36:47 10° SSW 23:39:35 26° SSE 23:42:24 10° E night (unlit)
28 Nov - 01:12:38 10° WSW 01:15:54 63° S 01:19:10 10° E night (unlit)
28 Nov - 02:49:09 10° W 02:52:25 62° S 02:55:41 10° ESE night (unlit)
28 Nov - 04:25:56 10° W 04:28:42 25° SSW 04:31:28 10° SSE visible
28 Nov - 22:47:24 10° SSW 22:49:47 19° SE 22:52:10 10° E night (unlit)
29 Nov - 00:22:44 10° WSW 00:25:57 53° SSE 00:29:11 10° E night (unlit)
29 Nov - 01:59:11 10° W 02:02:28 69° S 02:05:45 10° ESE night (unlit)
29 Nov - 03:35:50 10° W 03:38:51 34° SSW 03:41:52 10° SE night (unlit)
29 Nov - 21:58:25 10° S 21:59:59 13° SE 22:01:33 10° ESE night (unlit)
29 Nov - 23:32:52 10° SW 23:36:00 42° SSE 23:39:08 10° E night (unlit)
30 Nov - 01:09:09 10° W 01:12:27 71° S 01:15:44 10° E night (unlit)
30 Nov - 02:45:45 10° W 02:48:55 44° SSW 02:52:04 10° SE night (unlit)
30 Nov - 04:23:08 10° WSW 04:24:58 14° SW 04:26:46 10° S night (unlit)
30 Nov - 22:43:03 10° SW 22:46:01 31° SSE 22:48:59 10° E night (unlit)
01 Dec - 00:19:06 10° WSW 00:22:23 68° S 00:25:40 10° E night (unlit)
01 Dec - 01:55:39 10° W 01:58:53 56° SSW 02:02:07 10° ESE night (unlit)
01 Dec - 03:32:34 10° W 03:35:05 20° SSW 03:37:35 10° SSE night (unlit)
01 Dec - 21:53:21 10° SSW 21:56:02 23° SSE 21:58:43 10° E night (unlit)
01 Dec - 23:29:01 10° WSW 23:32:16 60° SSE 23:35:32 10° E night (unlit)
02 Dec - 01:05:30 10° W 01:08:47 65° S 01:12:04 10° ESE night (unlit)
02 Dec - 02:42:13 10° W 02:45:06 28° SSW 02:47:58 10° SSE night (unlit)
02 Dec - 21:03:54 10° S 21:06:02 16° SE 21:08:11 10° ESE night (unlit)
02 Dec - 22:38:56 10° WSW 22:42:08 49° SSE 22:45:21 10° E night (unlit)
